Location: Arbon
(43.0005°N, 0.7472°E)
Time: 22:34:14
(UTC+00:00)

Explorer 7 - Pass Details

Date: 01 December 2020
Orbit: 484 x 678 km, 50.3° (Epoch: 25 January)

Event Time Altitude Azimuth Distance (km) Brightness Sun altitude
Rises 23:45:39 0° 213° (SSW) 2,988 - -69.0°
Reaches altitude 10° 23:48:10 10° 204° (SSW) 2,059 - -69.0°
Maximum altitude 23:52:30 36° 139° (SE) 1,015 - -69.0°
Drops below altitude 10° 23:56:39 10° 73° (ENE) 1,974 - -68.9°
Sets 23:59:02 0° 65° (ENE) 2,848 - -68.8°
